Lapse_Rate
7.0 6.8 6.6 6.6 6.6 6.5 6.5 6.4 6.1 6.2 5.9 5.8 6.1 6.1 6.0 6.0 6.0 5.8 6.0 6.1 6.1 5.8
6.8 6.8 6.9 6.8 6.6 6.4 6.2 6.1 6.2 5.8 6.0 6.1 5.9 6.2 6.0 6.2 6.2 6.0 5.9 5.9 5.8 5.6
6.9 6.8 6.8 6.7 6.5 6.2 5.9 5.9 6.0 6.0 6.1 6.1 5.9 5.6 6.0 5.8 6.2 6.0 5.8 5.7 5.5 5.8
7.0 6.7 6.6 6.5 6.2 6.0 6.0 6.0 5.9 5.9 5.8 6.0 6.0 6.2 5.9 6.3 6.1 6.2 5.6 5.5 5.8 5.6
6.7 6.6 6.1 6.1 6.1 6.1 6.1 6.3 6.3 6.0 6.1 6.3 6.0 5.8 6.0 6.2 6.2 5.9 5.8 5.8 5.4 5.2
6.6 6.4 6.3 6.3 6.3 6.4 6.3 6.3 6.0 6.2 6.1 6.5 6.0 6.0 5.7 5.7 5.6 5.5 5.6 5.2 5.2 5.1
6.4 6.4 6.2 6.2 6.4 6.3 6.2 5.8 5.8 6.1 6.2 6.1 6.3 6.1 5.6 5.3 5.4 5.3 5.2 5.1 5.1 5.3
6.5 6.4 6.2 6.3 6.3 6.2 6.0 6.1 5.8 6.1 5.8 6.0 5.9 5.4 5.4 5.4 5.2 5.2 5.2 4.8 5.2 5.4
6.2 6.1 6.1 6.2 6.1 5.8 6.0 5.6 5.9 5.8 6.0 5.6 5.5 5.5 5.2 5.0 5.2 5.2 4.9 5.2 5.4 5.4
5.9 5.9 5.9 5.8 5.5 5.4 5.5 5.8 6.0 5.7 5.4 5.7 5.7 5.4 5.3 5.0 5.1 5.1 5.2 5.3 5.4 5.5
5.9 5.8 5.7 5.2 5.2 5.3 5.9 5.8 5.3 5.4 5.7 5.6 5.5 5.2 4.9 4.9 5.0 5.1 5.3 5.4 5.5 5.6
5.5 5.5 5.0 4.6 5.2 5.4 5.4 5.2 5.5 5.5 5.6 5.4 5.1 4.9 4.8 4.9 5.2 5.4 5.5 5.4 5.5 5.7
5.5 5.4 5.2 5.0 4.9 5.1 5.2 5.4 5.5 5.4 5.2 5.0 4.9 4.9 5.1 5.3 5.4 5.5 5.4 5.4 5.7 6.2
5.2 4.9 4.9 4.9 5.0 5.0 5.1 5.2 5.2 5.3 5.0 4.9 4.9 5.0 5.2 5.3 5.2 5.2 5.2 5.5 6.1 6.6
Wind_Speed
16 9 8 10 8 8 8 9 15 17 19 18 15 15 10 9 8 8 6 8 6 5
13 12 10 10 10 8 8 7 16 18 18 15 14 12 12 7 8 7 6 6 7 5
13 13 10 10 13 13 11 13 14 15 16 13 11 13 10 5 5 6 5 5 7 6
12 12 11 10 11 11 11 12 15 15 12 9 8 9 5 5 5 8 8 7 7 9
10 9 10 9 9 10 11 12 13 11 9 7 8 7 4 3 6 9 9 9 10 12
7 8 8 8 8 9 10 13 10 8 6 5 7 6 3 8 10 10 9 10 11 12
4 5 6 8 9 10 11 10 11 9 8 6 5 3 6 7 8 9 10 11 12 13
6 7 8 9 9 9 9 8 10 8 7 4 2 2 2 8 11 11 12 12 12 11
9 10 11 11 11 11 11 9 8 5 4 4 3 7 14 11 11 12 12 12 10 11
11 12 11 12 12 10 8 5 3 2 3 5 7 11 13 13 9 10 10 10 9 8
12 13 12 10 10 7 3 3 3 6 8 9 9 10 11 9 8 8 9 9 10 10
13 13 11 8 4 2 2 4 5 6 7 8 8 7 9 8 9 9 10 9 9 10
11 8 6 3 2 1 2 3 4 6 6 6 9 9 11 10 7 9 9 10 10 12
6 5 5 3 2 3 4 5 5 6 7 8 8 10 13 14 9 9 9 9 9 9
Wind_Direction
204 200 200 189 176 190 193 189 184 181 174 168 170 152 172 202 197 193 197 191 201 201
205 202 192 184 188 187 184 178 184 177 175 174 167 189 181 207 187 186 199 206 203 214
212 207 201 190 196 192 190 182 177 176 179 174 194 197 191 183 199 200 204 212 212 219
208 206 201 199 197 189 182 182 179 183 183 187 178 185 168 188 202 228 227 223 224 229
206 199 201 200 187 178 179 177 174 178 177 177 175 182 196 194 230 238 236 236 228 236
212 197 195 189 173 172 170 176 165 146 142 168 169 198 176 233 251 248 246 247 238 240
188 195 180 171 173 174 172 159 153 148 159 152 155 199 238 258 268 267 257 254 248 239
144 144 141 127 108 105 92 100 120 110 126 143 138 252 301 274 266 273 276 266 248 237
124 109 100 98 98 96 96 105 104 100 133 183 225 243 253 256 276 273 270 266 255 244
108 101 99 104 104 104 105 120 124 201 211 230 246 245 260 260 272 273 271 270 267 255
108 108 108 100 98 102 108 151 205 237 246 252 260 254 264 267 277 275 277 272 264 254
114 112 108 104 109 142 227 243 254 258 258 262 269 262 277 286 286 274 268 261 253 246
108 111 114 108 116 226 262 286 291 293 288 281 285 287 278 275 269 267 265 261 256 234
69 69 64 64 36 349 331 316 311 304 301 290 280 283 270 268 271 262 267 262 261 252